This is the latest recevied weather packets stored in our database for station/object WD7OO. If no packets are shown the sender has not sent any weather packets the latest 10 day(s).
| Time | Temp. | Humidity | Pressure | Rain* | Wind** | Luminosity | Snow |
|---|---|---|---|---|---|---|---|
| 1778185041 | 14.44° C | 45% | 1012.3 hPa | 0 mm | - | 298 W/m² | - |
| 1778184738 | 13.89° C | 45% | 1012.3 hPa | 0 mm | - | 629 W/m² | - |
| 1778184434 | 13.89° C | 44% | 1012.6 hPa | 0 mm | - | 311 W/m² | - |
| 1778184131 | 13.89° C | 47% | 1012.7 hPa | 0 mm | - | 239 W/m² | - |
| 1778183827 | 13.89° C | 43% | 1012.5 hPa | 0 mm | - | 220 W/m² | - |
| 1778183524 | 14.44° C | 44% | 1012.6 hPa | 0 mm | - | 271 W/m² | - |
| 1778183221 | 15° C | 41% | 1012.6 hPa | 0 mm | - | 276 W/m² | - |
| 1778182917 | 14.44° C | 46% | 1012.8 hPa | 0 mm | - | 535 W/m² | - |
| 1778182614 | 14.44° C | 41% | 1012.8 hPa | 0 mm | - | 290 W/m² | - |
| 1778182311 | 14.44° C | 42% | 1012.9 hPa | 0 mm | - | 252 W/m² | - |
| 1778182007 | 15° C | 43% | 1013.1 hPa | 0 mm | - | 294 W/m² | - |
| 1778181704 | 14.44° C | 39% | 1013.1 hPa | 0 mm | - | 369 W/m² | - |
| 1778181399 | 13.89° C | 42% | 1013.2 hPa | 0 mm | - | 714 W/m² | - |
| 1778181097 | 15.56° C | 41% | 1013.5 hPa | 0 mm | - | 202 W/m² | - |
| 1778180794 | 14.44° C | 43% | 1013.5 hPa | 0 mm | - | 668 W/m² | - |
| 1778180493 | 14.44° C | 45% | 1013.4 hPa | 0 mm | - | 513 W/m² | - |
| 1778180191 | 14.44° C | 39% | 1013.5 hPa | 0 mm | - | 624 W/m² | - |
| 1778179887 | 14.44° C | 38% | 1013.5 hPa | 0 mm | - | 637 W/m² | - |
| 1778179585 | 14.44° C | 40% | 1013.6 hPa | 0 mm | - | 713 W/m² | - |
| 1778179283 | 13.89° C | 42% | 1013.6 hPa | 0 mm | - | 738 W/m² | - |
| 1778178978 | 13.33° C | 43% | 1013.7 hPa | 0 mm | - | 797 W/m² | - |
| 1778178675 | 12.78° C | 43% | 1013.9 hPa | 0 mm | - | 670 W/m² | - |
| 1778178372 | 12.78° C | 46% | 1013.9 hPa | 0 mm | - | 294 W/m² | - |
| 1778178068 | 13.33° C | 44% | 1013.8 hPa | 0 mm | - | 394 W/m² | - |
| 1778177765 | 14.44° C | 48% | 1013.9 hPa | 0 mm | - | 620 W/m² | - |
* Rain latest hour (hover to see other rain measurements)
** Current wind speed in m/s (hover to see current wind gust speed)